DMSP 5D-2 F9 (USA 29)

导读 | 星芒AI

DMSP 5D-2 F9(USA-29)是美国国防气象卫星计划(DMSP)中的一颗气象卫星,由美国空军于1998年12月19日发射。该卫星搭载多种遥感仪器,用于监测地球的气象、云层覆盖、海洋表面温度和电离层状况,为军事和民用提供关键气象数据。F9卫星运行在近极地、太阳同步轨道,确保全球范围内的观测覆盖。它是DMSP系列中的重要成员,支持全球天气预报和环境监测。

基本信息
目录编号:
18822
目录名称:
DMSP 5D-2 F9 (USA 29)
国际标识:
1988-006A
轨道中心:
EARTH
卫星名称:
DMSP 5D-2 F9 (USA 29)
卫星全名:
--
卫星状态:
在轨 (已飞行13789 天)
发射日期:
1988-02-03 UTC
国别 :
美国 (US)
星等 :
--
轨道信息
数据来源 国际轨道数据 AOE轨道数据
星历时间 2025-11-04T18:42:44+0800
7小时前
查看轨道信息
2025-11-04T07:00:00+0800
19小时前
查看轨道信息
半长轴 7174.321km 7174.324km
偏心率 0.0006711 0.0006727
轨道倾角 98.337° 98.335°
近地点辐角 23.423° 25.026°
升交点赤经 119.696° 119.230°
平近点角 336.726° 346.624°
近地点 791.371km 791.362km
远地点 801.001km 801.016km
周期 100.793分钟 100.793分钟
每日圈数 14.286688 14.286679
详细信息
使用方式:
暂无
2D轨道图
3D轨道图
轨道高度分析图
轨道倾角分析图
轨道综合分析图
查看轨道综合分析图